FENGYUN 1C DEB, 29917

Orbit data source: Space-Track

FENGYUN 1C DEB, 29917 is space debris in SSO originally from a launch on Mon, 10 May 1999 UTC launched from the Taiyaun Space Center, China (TSC). Fengyun 1C debris stems from the Chinese weather satellite Fengyun-1C, which was intentionally destroyed by a Chinese anti-satellite missile in 2007. This event dramatically increased the amount of space debris, with thousands of trackable fragments posing hazards to satellites and human spaceflight. The Fengyun 1C debris cloud has become a focal point in discussions about space sustainability and the need for international regulations to prevent the creation of new debris.

Loading next visibility...
Identifier
29917, 1999-025HP
Orbit
SSO
Country
Flag of CNCN / PRC
Related business
Manufacturer
Unknown
Mission
Spacecraft
Bus & Motor
Unknown
Mass
Unknown
Launch date (UTC)
1999-05-10 (27 years ago)
Launch vehicle
Unknown
Launch site
Taiyaun Space Center, China (TSC)
Object type
Payload
Rocket body
Debris
Shape & HBR
Unknown shape, 0.1 m
Radar Cross Section
Medium (>0.1 m² and <1 m²)

Expand to show TLE details & history
Last TLE update: 10 hours ago

TLE from 10 hours ago
0 FENGYUN 1C DEB
1 29917U 99025HP  26238.55164251  .00000912  00000-0  89303-3 0  9991
2 29917  98.8545  85.6119 0222491 165.4843 225.1953 13.70997286976494
Epoch: 2026-08-26T13:14Z
TLE epoch observation values (Epoch: 2026-08-26T13:14:21.912Z)
Latitude
28.57279°
Longitude
-92.62435°
Altitude
1,116.897 km
Speed
7.238 km/s
True Right ascension
05h 23m 04s
True Declination
28° 26' 08"
Sunlit
Object was in daylight at epoch
Visualization orbit readout
Latitude
Unknown
Longitude
Unknown
Altitude
Unknown
Speed
Unknown
Apparent Right ascension
Unknown
Apparent Declination
Unknown
Sunlit
N/A
Visualization observer readout
Local Sidereal Time
14:40:08
Azimuth
Unknown
Elevation
Unknown
Doppler factor
Unknown
Orbital elements
Apogee altitude
1,157.228 km
Perigee altitude
829.216 km
Semi-major axis
7,371.359 km
Eccentricity
0.02225
Inclination
98.8545°
RAAN
85.6119°
Arg. of periapsis
165.4843°
True anomaly
223.42143°
Mean anomaly
225.1953°
Eccentric anomaly
224.3049°
Mean motion
3.42943 °/min
Orbital period
104.97 mins
BSTAR
0.00089303
Loading maneuver chart data...
Computing Atmospheric mass density...
Loading historical data...
Loading historical data...
Loading historical data...
Loading historical data...
Loading historical data...
Loading historical data...
Loading historical data...

Documentation

Showing up to 5 results
|